Date String (YYYY-MM-DD hh:mm:ss) UTC,Instrument flags,Ambient pressure (hPa),Sample flow (lpm),Bypass flow (lpm),Sample temperature (°C),Ambient temperature (°C),ASC tube jacket temperature (°C),LED temperature (°C),Box temperature (°C),Sample RH (%),Span deviation,Mass concentration (μg/m³),Mass concentration (μg/m³),Mass concentration (μg/m³)
DateTimeUTC,F1_M11,P_M11,Q1_M11,Q2_M11,T1_M11,T2_M11,T3_M11,T4_M11,T5_M11,U1_M11,ZSPAN_M11,X0_M11,X2_M11,X1_M11
2022-04-05 15:00:00,,0810.4,4.99,0.00,25.7,24.9,00.0,34.7,27.6,16.3,0000.0,0015.05,0004.05,0000.83
2022-04-05 15:01:00,,0810.3,5.01,0.00,25.7,24.9,00.0,34.7,27.6,16.7,0000.0,0015.10,0004.05,0000.82
2022-04-05 15:02:00,,0810.4,5.00,0.00,25.8,24.9,00.0,34.7,27.6,16.2,0000.0,0015.21,0003.95,0000.82
2022-04-05 15:03:00,,0810.4,4.99,0.00,25.7,24.9,00.0,34.7,27.6,16.2,0000.0,0014.87,0003.85,0000.82
2022-04-05 15:04:00,,0810.5,5.01,0.00,25.7,24.9,00.0,34.7,27.6,16.3,0000.0,0014.29,0003.76,0000.81
2022-04-05 15:05:00,,0810.6,5.00,0.00,25.7,25.0,00.0,34.7,27.6,16.6,0000.0,0013.26,0003.67,0000.80
2022-04-05 15:06:00,,0810.7,5.00,0.00,25.7,25.0,00.0,34.7,27.6,16.4,0000.0,0013.78,0003.69,0000.78
2022-04-05 15:07:00,,0810.7,4.99,0.00,25.7,25.0,00.0,34.7,27.6,16.6,0000.0,0013.23,0003.62,0000.77
2022-04-05 15:08:00,,0810.8,4.99,0.00,25.8,24.9,00.0,34.7,27.6,16.8,0000.0,0013.10,0003.57,0000.75
2022-04-05 15:09:00,,0810.9,4.99,0.00,25.8,25.0,00.0,34.7,27.6,18.3,0000.0,0012.39,0003.54,0000.74
2022-04-05 15:10:00,,0810.7,5.01,0.00,25.8,25.0,00.0,34.7,27.6,18.8,0000.0,0011.52,0003.36,0000.70
2022-04-05 15:11:00,,0810.9,5.00,0.00,25.8,25.0,00.0,34.7,27.6,19.0,0000.0,0011.25,0003.21,0000.65
2022-04-05 15:12:00,,0811.1,4.99,0.00,25.7,24.9,00.0,34.7,27.6,19.1,0000.0,0010.52,0002.98,0000.61
2022-04-05 15:13:00,,0811.1,5.01,0.00,25.7,24.9,00.0,34.7,27.6,19.3,0000.0,0009.85,0002.88,0000.58
2022-04-05 15:14:00,,0811.1,5.00,0.00,25.7,24.9,00.0,34.7,27.6,19.4,0000.0,0010.17,0002.81,0000.55
2022-04-05 15:15:00,,0811.1,5.00,0.00,25.7,24.9,00.0,34.7,27.6,19.6,0000.0,0010.90,0002.75,0000.52
2022-04-05 15:16:00,,0811.1,5.00,0.00,25.7,24.9,00.0,34.7,27.6,19.6,0000.0,0010.68,0002.63,0000.48
2022-04-05 15:17:00,,0811.1,4.99,0.00,25.7,24.9,00.0,34.7,27.6,19.8,0000.0,0009.46,0002.23,0000.43
2022-04-05 15:18:00,,0811.1,5.01,0.00,25.7,24.9,00.0,34.7,27.5,19.9,0000.0,0009.04,0001.97,0000.38
2022-04-05 15:19:00,,0811.2,5.00,0.00,25.7,24.9,00.0,34.7,27.5,19.9,0000.0,0008.61,0001.80,0000.35
2022-04-05 15:20:00,,0811.4,5.00,0.00,25.7,24.8,00.0,34.7,27.5,19.9,0000.0,0008.42,0001.69,0000.32
2022-04-05 15:21:00,,0811.4,5.00,0.00,25.7,24.9,00.0,34.7,27.5,20.0,0000.0,0008.42,0001.66,0000.32
2022-04-05 15:22:00,,0811.4,5.00,0.00,25.7,24.9,00.0,34.7,27.5,19.9,0000.0,0008.27,0001.61,0000.31
2022-04-05 15:23:00,,0811.3,5.00,0.00,25.7,24.9,00.0,34.7,27.5,20.0,0000.0,0008.15,0001.58,0000.32
2022-04-05 15:24:00,,0811.3,5.01,0.00,25.7,24.9,00.0,34.7,27.5,19.9,0000.0,0008.01,0001.51,0000.29
2022-04-05 15:25:00,,0811.4,4.99,0.00,25.7,24.9,00.0,34.7,27.5,19.9,0000.0,0007.05,0001.40,0000.28
2022-04-05 15:26:00,,0811.5,5.00,0.00,25.7,24.9,00.0,34.7,27.5,20.0,0000.0,0005.03,0001.32,0000.27
2022-04-05 15:27:00,,0811.7,4.99,0.00,25.7,24.9,00.0,34.7,27.5,20.2,0000.0,0004.65,0001.25,0000.28
2022-04-05 15:28:00,,0811.7,4.99,0.00,25.7,24.9,00.0,34.7,27.5,20.4,0000.0,0004.48,0001.30,0000.28
2022-04-05 15:29:00,,0811.7,5.00,0.00,25.7,25.0,00.0,34.7,27.5,20.4,0000.0,0004.15,0001.34,0000.29
2022-04-05 15:30:00,,0811.6,5.00,0.00,25.7,25.0,00.0,34.7,27.5,20.2,0000.0,0005.62,0001.41,0000.29
2022-04-05 15:31:00,,0811.6,5.01,0.00,25.7,25.0,00.0,34.7,27.6,20.1,0000.0,0006.66,0001.42,0000.30
2022-04-05 15:32:00,,0811.6,5.00,0.00,25.7,25.0,00.0,34.7,27.6,20.1,0000.0,0007.55,0001.37,0000.30
2022-04-05 15:33:00,,0811.5,5.00,0.00,25.7,25.0,00.0,34.7,27.6,20.4,0000.0,0008.11,0001.44,0000.31
2022-04-05 15:34:00,,0811.4,4.99,0.00,25.7,25.0,00.0,34.7,27.6,20.3,0000.0,0008.86,0001.49,0000.30
2022-04-05 15:35:00,,0811.4,4.99,0.00,25.7,25.0,00.0,34.7,27.6,20.2,0000.0,0008.85,0001.50,0000.30
2022-04-05 15:36:00,,0811.4,5.00,0.00,25.7,25.0,00.0,34.7,27.6,20.2,0000.0,0009.26,0001.55,0000.30
2022-04-05 15:37:00,,0811.4,5.01,0.00,25.7,24.9,00.0,34.7,27.5,20.3,0000.0,0009.39,0001.60,0000.29
2022-04-05 15:38:00,,0811.4,4.99,0.00,25.7,24.9,00.0,34.7,27.5,20.5,0000.0,0009.69,0001.60,0000.29
2022-04-05 15:39:00,,0811.5,5.00,0.00,25.7,25.0,00.0,34.7,27.6,20.6,0000.0,0009.95,0001.57,0000.29
2022-04-05 15:40:00,,0811.6,5.02,0.00,25.7,25.0,00.0,34.7,27.6,21.0,0000.0,0010.25,0001.61,0000.27
2022-04-05 15:41:00,,0811.6,5.01,0.00,25.7,25.0,00.0,34.7,27.6,20.7,0000.0,0009.66,0001.55,0000.25
2022-04-05 15:42:00,,0811.5,5.00,0.00,25.7,25.0,00.0,34.7,27.6,20.5,0000.0,0009.63,0001.60,0000.24
2022-04-05 15:43:00,,0811.5,4.99,0.00,25.7,25.0,00.0,34.7,27.6,20.5,0000.0,0008.96,0001.69,0000.24
2022-04-05 15:44:00,,0811.4,5.00,0.00,25.7,25.0,00.0,34.7,27.6,20.6,0000.0,0008.59,0001.66,0000.23
2022-04-05 15:45:00,,0811.4,5.01,0.00,25.7,25.0,00.0,34.7,27.6,20.7,0000.0,0008.22,0001.59,0000.23
2022-04-05 15:46:00,,0811.4,5.00,0.00,25.8,25.0,00.0,34.7,27.6,20.6,0000.0,0008.20,0001.52,0000.22
2022-04-05 15:47:00,,0811.4,5.00,0.00,25.8,25.0,00.0,34.7,27.6,20.4,0000.0,0007.77,0001.44,0000.22
2022-04-05 15:48:00,,0811.4,4.99,0.00,25.8,25.0,00.0,34.7,27.6,20.5,0000.0,0007.74,0001.44,0000.21
2022-04-05 15:49:00,,0811.2,4.99,0.00,25.8,25.0,00.0,34.7,27.6,20.6,0000.0,0007.51,0001.48,0000.21
2022-04-05 15:50:00,,0811.2,5.00,0.00,25.8,25.1,00.0,34.7,27.6,20.3,0000.0,0007.32,0001.46,0000.21
2022-04-05 15:51:00,,0811.2,5.00,0.00,25.8,25.1,00.0,34.7,27.6,20.3,0000.0,0006.26,0001.36,0000.21
2022-04-05 15:52:00,,0811.2,5.00,0.00,25.8,25.0,00.0,34.7,27.6,20.2,0000.0,0006.58,0001.30,0000.21
2022-04-05 15:53:00,,0811.3,4.99,0.00,25.8,25.0,00.0,34.7,27.6,20.2,0000.0,0006.08,0001.21,0000.21
2022-04-05 15:54:00,,0811.4,5.00,0.00,25.8,25.0,00.0,34.7,27.6,20.2,0000.0,0007.14,0001.11,0000.20
2022-04-05 15:55:00,,0811.5,5.01,0.00,25.7,25.0,00.0,34.7,27.6,20.4,0000.0,0007.00,0001.02,0000.19
2022-04-05 15:56:00,,0811.5,5.01,0.00,25.7,25.0,00.0,34.7,27.6,20.1,0000.0,0006.26,0000.99,0000.19
2022-04-05 15:57:00,,0811.4,5.00,0.00,25.8,25.0,00.0,34.7,27.6,19.9,0000.0,0005.63,0000.94,0000.18
2022-04-05 15:58:00,,0811.2,5.00,0.00,25.7,25.0,00.0,34.7,27.6,20.0,0000.0,0006.84,0000.98,0000.17
2022-04-05 15:59:00,,0811.2,5.01,0.00,25.7,25.0,00.0,34.7,27.6,19.9,0000.0,0006.72,0000.91,0000.17
